Voltar ao catálogo

STARLINK-37190

AtivoComunicaçõesSSO
NORAD 68396·PAYLOAD·🇺🇸 United States

Lançado Mar 26, 2026 de Vandenberg Space Force Base

Loading…

Próximas Passagens (próximas 24 horas)

TLE

AtualizadoSource: CelesTrak SupGP

Época: Sep 15, 2026, 04:02 UTC

1 68396C 26063S   26258.16854167  .00000714  00000+0  22170-4 0  2585
2 68396  97.2854  39.1666 0001419  83.9138 340.9545 15.33431537    13

Acompanhe STARLINK-37190 em tempo real com AllMySat

Download on the App Store